Погода в Дубовке

Россия / Тульская область     53°55′15″N   38°06′01″E
темп.,
°C
ветер,
м/с
пор.,
м/с
влажн.,
%
обл.,
%
осадки,
мм/ч
давл.,
гПа
погр.,
м
18 июня, пт
пт1800:00+14всв48780 0.0 1025126
03:00+12всв35830 0.0 102680
06:00+14всв38850 0.0 1027203
09:00+19в47690 0.0 1027555
12:00+21в46590 0.0 10281307
15:00+22в55580 0.0 10271371
18:00+21вюв34700 0.0 10261105
21:00+16вюв22820 0.0 102613
19 июня, сб
сб1900:00+14юв22881 0.0 102716
03:00+13юв228949 0.0 102711
06:00+15юв23880 0.0 1028100
09:00+19юв33710 0.0 1027522
12:00+22ююв33620 0.0 1027969
15:00+23ююв23590 0.0 10251215
18:00+23ююв22670 0.0 10241059
21:00+18юв22840 0.0 102511
20 июня, вс
вс2000:00+16ююв22890 0.0 102512
03:00+15ю22910 0.0 102511
06:00+16ююв22860 0.0 102581
09:00+21юв34690 0.0 1025469
12:00+23ююв34590 0.0 1024925
15:00+25юв34571 0.0 10231082
18:00+24юв2469100 0.0 1022755
21:00+19юв2286100 0.0 102217
21 июня, пн
пн2100:00+18юв3390100 0.0 102237
03:00+17юв3390100 0.0 102236
06:00+18вюв3487100 0.0 1022110
09:00+22вюв467480 0.0 1022435
12:00+25вюв456294 0.0 1022800
15:00+26юв4561100 0.0 1021895
18:00+25вюв3675100 0.0 1021515
21:00+21вюв3491100 0.0 102164
22 июня, вт
вт2200:00+19юв359382 0.0 102181
03:00+18юв33925 0.0 102142
06:00+19юв369181 0.0 1022145
09:00+24юв46735 0.0 1022445
12:00+27юв456018 0.0 1022941
15:00+28вюв455515 0.0 10221165
18:00+27вюв35685 0.0 1022336
21:00+22вюв338581 0.0 102240